Regional Weather Roundup
Issued by NWS State College, PA

Home | Current Version | Previous Version | Graphics & Text | Print | Product List | Glossary On
Versions: 1 2 3 4 5 6 7 8 9 10 11 12 13 14 15 16 17 18 19 20 21 22 23 24 25 26 27 28 29 30 31 32 33 34 35 36 37 38 39 40 41 42 43 44 45 46 47 48 49 50
000
ASUS41 KCTP 200803
RWRCTP
NATIONAL WEATHER SERVICE STATE COLLEGE PA
400 AM EDT WED SEP 20 2017

Note: "fair" indicates few or no clouds below 12,000 feet with no
significant weather and/or obstructions to visibility.

* = STATION THAT DOES NOT REPORT PRECIPITATION /E.G. RAIN...SNOW...ETC/
    THUNDER OR FOG.

PAZ002>004-007>009-013>016-020>023-029>032-200900-
WESTERN PENNSYLVANIA

CITY           SKY/WX    TMP DP  RH WIND       PRES   REMARKS
ERIE           CLOUDY    66  62  87 CALM      29.97F
MEADVILLE      CLEAR     62  61  96 CALM      30.01R
FRANKLIN*      MOCLDY    57  57 100 CALM      30.02S
NEW CASTLE     FOG       62  62 100 E3        30.00S VSB 1/4
BEAVER COUNTY  NOT AVBL
BUTLER*        CLEAR     56  55  97 NE7       30.00S FOG
PITTSBURGH INT MOCLDY    65  63  93 CALM      29.99R
PITTSBURGH     CLEAR     63  60  90 CALM      29.98S
INDIANA*       CLEAR     59  57  94 CALM      30.03S
LATROBE        CLEAR     57  57 100 CALM      30.00S
WASHINGTON CO* CLOUDY    61  57  88 CALM      29.99S
$$

PAZ004>006-010>012-017>019-024>028-033>037-041-042-045-046-049>053-200900-
CENTRAL PENNSYLVANIA

CITY           SKY/WX    TMP DP  RH WIND       PRES   REMARKS
BRADFORD       CLEAR     53  52  96 CALM      30.05S
DUBOIS         CLEAR     57  55  93 E6        30.02S FOG
CLEARFIELD     FOG       56  56 100 CALM      30.02F VSB 1/4
JOHNSTOWN      CLEAR     60  59  96 CALM      30.03F
ALTOONA        FOG       55  55 100 CALM      30.01F VSB<1/4
STATE COLLEGE  FOG       56  56  99 CALM      30.00S VSB 3/4
WILLIAMSPORT   CLOUDY    62  61  96 NW3       29.97S FOG
SELINSGROVE    CLEAR     57  57 100 CALM      29.96S FOG
FT INDIANTOWN  CLOUDY    70  62  74 CALM      29.92F
CAPITAL CITY   CLOUDY    68  62  81 W5        29.93S
HARRISBURG     CLOUDY    69  65  86 NW7       29.92S
YORK           CLOUDY    66  64  93 W3        29.93S
$$

PAZ038>040-043-044-047-048-054-055-060>062-067>071-200900-
EASTERN PENNSYLVANIA

CITY           SKY/WX    TMP DP  RH WIND       PRES   REMARKS
SCRANTON       CLEAR     61  59  93 CALM      29.96S
MOUNT POCONO   CLOUDY    63  59  87 N9G18     29.96F
ALLENTOWN      CLOUDY    71  61  70 N8        29.89F
QUAKERTOWN*    CLOUDY    70  63  78 N10G18    29.89F
READING        CLOUDY    70  64  81 N6        29.88F
LANCASTER      CLOUDY    70  63  78 NW9       29.90F
COATESVILLE    MOSUNNY   70  63  78 N9        29.90F
POTTSTOWN      CLOUDY    69  63  81 N7        29.90S
BLUE BELL      CLOUDY    68  63  83 N5        29.87S
DOYLESTOWN     CLOUDY    69  63  81 N6        29.86S
WILLOW GROVE   NOT AVBL
NORTH PHILA    PTCLDY    72  63  73 N12       29.85S
PHILADELPHIA   CLOUDY    72  63  73 N10       29.84F
$$




USA.gov is the U.S. government's official web portal to all federal, state and local government web resources and services.